Denver, CO

8:32 PM MDT on May 26, 2017 (GMT -0600)
Front Range

Weather History for KFTG - January, 2012

Change the Weather History Date:

Saturday, January 28, 2012

  Actual Average (KBKF) Record (KBKF)
Temperature  
Mean Temperature 30 °F -  
Max Temperature 42 °F 42 °F 66 °F (2011)
Min Temperature 17 °F 21 °F 1 °F (2014)
Degree Days  
Heating Degree Days 36    
Moisture  
Dew Point 7 °F    
Average Humidity 42    
Maximum Humidity 86    
Minimum Humidity 14    
Precipitation  
Precipitation 0.00 in - - ()
Sea Level Pressure  
Sea Level Pressure 30.20 in    
Wind  
Wind Speed 10 mph (WSW)    
Max Wind Speed 23 mph    
Max Gust Speed 31 mph    
Visibility 10 miles    
Events      
Averages and records for this station are not official NWS values.
T = Trace of Precipitation, MM = Missing Value Source: NWS Daily Summary

Daily Weather History Graph

Daily Weather History Graph

Search for Another Location

Airport or City:

Trip Planner

Search our weather history database for the weather conditions in past years. The results will help you decide how hot, cold, wet, or windy it might be!

Date:

Astronomy

Jan. 28, 2012 Rise Set
Actual Time 7:10 AM MST 5:12 PM MST
Civil Twilight 6:41 AM MST 5:41 PM MST
Nautical Twilight 6:08 AM MST 6:13 PM MST
Astronomical Twilight 5:36 AM MST 6:45 PM MST
Moon 9:34 AM MST (1/28) 11:02 PM MST (1/28)
Length of Visible Light 11h 00m
Length of Day
10h 02m
Waxing Crescent, 28% of the Moon is Illuminated
Jan 28
Waxing Crescent
Jan 30
First Quarter
Feb 7
Full
Feb 14
Last Quarter
Feb 21
New

Hourly Weather History & Observations

Time (MST) Temp. Windchill Dew Point Humidity Pressure Visibility Wind Dir Wind Speed Gust Speed Precip Events Conditions
12:19 AM 17.6 °F 6.4 °F 14.0 °F 86% 30.26 in 10.0 mi South 9.2 mph - N/A   Clear
12:36 AM 17.6 °F 6.4 °F 12.2 °F 79% 30.25 in 10.0 mi South 9.2 mph - N/A   Clear
1:21 AM 19.4 °F 7.9 °F 14.0 °F 80% 30.22 in 10.0 mi South 10.4 mph - N/A   Clear
1:40 AM 19.4 °F 7.9 °F 12.2 °F 74% 30.21 in 10.0 mi South 10.4 mph - N/A   Clear
3:18 AM 19.4 °F 11.5 °F 12.2 °F 74% 30.18 in 10.0 mi South 5.8 mph - N/A   Clear
4:21 AM 21.2 °F 8.9 °F 12.2 °F 68% 30.16 in 10.0 mi SSW 12.7 mph - N/A   Clear
4:58 AM 19.4 °F 12.8 °F 12.2 °F 74% 30.17 in 10.0 mi South 4.6 mph - N/A   Clear
5:12 AM 19.4 °F 12.8 °F 10.4 °F 68% 30.18 in 10.0 mi SSW 4.6 mph - N/A   Clear
6:00 AM 17.6 °F 9.3 °F 10.4 °F 73% 30.20 in 10.0 mi SSW 5.8 mph - N/A   Clear
6:21 AM 21.2 °F 13.6 °F 8.6 °F 58% 30.20 in 10.0 mi SSW 5.8 mph - N/A   Clear
6:36 AM 17.6 °F - 10.4 °F 73% 30.21 in 10.0 mi Calm Calm - N/A   Clear
6:51 AM 17.6 °F - 10.4 °F 73% 30.22 in 10.0 mi Calm Calm - N/A   Clear
7:44 AM 17.6 °F 10.7 °F 12.2 °F 79% 30.26 in 10.0 mi SSW 4.6 mph - N/A   Clear
9:02 AM 23.0 °F 18.4 °F 15.8 °F 74% 30.27 in 10.0 mi East 3.5 mph - N/A   Clear
9:14 AM 23.0 °F 18.4 °F 17.6 °F 80% 30.27 in 10.0 mi SE 3.5 mph - N/A   Clear
9:36 AM 28.4 °F 22.2 °F 17.6 °F 64% 30.28 in 10.0 mi SE 5.8 mph - N/A   Clear
9:57 AM 30.2 °F 21.9 °F 5.0 °F 34% 30.28 in 10.0 mi ESE 9.2 mph - N/A   Clear
10:14 AM 30.2 °F 21.9 °F 5.0 °F 34% 30.29 in 10.0 mi SE 9.2 mph - N/A   Clear
10:42 AM 32.0 °F 23.6 °F 8.6 °F 38% 30.29 in 10.0 mi SSE 10.4 mph - N/A   Clear
10:51 AM 32.0 °F 24.8 °F 8.6 °F 38% 30.29 in 10.0 mi SSE 8.1 mph - N/A   Clear
11:19 AM 32.0 °F 23.6 °F 6.8 °F 35% 30.27 in 10.0 mi SSE 10.4 mph - N/A   Clear
12:01 PM 37.4 °F 28.5 °F -0.4 °F 20% 30.23 in 10.0 mi West 15.0 mph 20.7 mph N/A   Clear
12:22 PM 37.4 °F 27.8 °F 1.4 °F 22% 30.22 in 10.0 mi WNW 17.3 mph 24.2 mph N/A   Clear
12:37 PM 41.0 °F 33.1 °F 1.4 °F 19% 30.21 in 10.0 mi WNW 15.0 mph - N/A   Clear
1:01 PM 41.0 °F 31.9 °F -0.4 °F 18% 30.20 in 10.0 mi West 19.6 mph 27.6 mph N/A   Clear
1:13 PM 41.0 °F 31.4 °F -0.4 °F 18% 30.19 in 10.0 mi West 21.9 mph 27.6 mph N/A   Clear
1:42 PM 41.0 °F 31.1 °F -0.4 °F 18% 30.18 in 10.0 mi West 23.0 mph 31.1 mph N/A   Clear
1:55 PM 42.8 °F 34.5 °F -4.0 °F 14% 30.17 in 10.0 mi West 18.4 mph 24.2 mph N/A   Clear
2:22 PM 42.8 °F 34.3 °F -0.4 °F 16% 30.18 in 10.0 mi West 19.6 mph 26.5 mph N/A   Clear
2:42 PM 42.8 °F 35.4 °F -2.2 °F 15% 30.17 in 10.0 mi WSW 15.0 mph 24.2 mph N/A   Clear
3:02 PM 42.8 °F 35.8 °F -0.4 °F 16% 30.17 in 10.0 mi West 13.8 mph 19.6 mph N/A   Clear
3:22 PM 42.8 °F 35.8 °F 1.4 °F 18% 30.17 in 10.0 mi West 13.8 mph - N/A   Clear
3:42 PM 42.8 °F 36.2 °F -0.4 °F 16% 30.17 in 10.0 mi West 12.7 mph 23.0 mph N/A   Clear
4:02 PM 41.0 °F 33.9 °F 3.2 °F 21% 30.16 in 10.0 mi WNW 12.7 mph - N/A   Clear
4:21 PM 37.4 °F 29.3 °F 6.8 °F 28% 30.17 in 10.0 mi WNW 12.7 mph - N/A   Clear
4:42 PM 35.6 °F 27.1 °F 8.6 °F 33% 30.17 in 10.0 mi WNW 12.7 mph - N/A   Clear
5:01 PM 35.6 °F 28.0 °F 8.6 °F 33% 30.17 in 10.0 mi WNW 10.4 mph - N/A   Clear
5:22 PM 33.8 °F 25.3 °F 6.8 °F 32% 30.17 in 10.0 mi West 11.5 mph - N/A   Clear
5:42 PM 33.8 °F 24.3 °F 8.6 °F 35% 30.18 in 10.0 mi West 13.8 mph - N/A   Clear
6:02 PM 33.8 °F 26.4 °F 8.6 °F 35% 30.19 in 10.0 mi NW 9.2 mph - N/A   Clear
6:22 PM 32.0 °F 24.8 °F 10.4 °F 41% 30.18 in 10.0 mi WNW 8.1 mph - N/A   Clear
6:42 PM 30.2 °F 22.6 °F 10.4 °F 44% 30.19 in 10.0 mi WNW 8.1 mph - N/A   Clear
7:02 PM 30.2 °F 23.4 °F 8.6 °F 40% 30.19 in 10.0 mi West 6.9 mph - N/A   Clear
7:22 PM 32.0 °F 26.4 °F 5.0 °F 32% 30.19 in 10.0 mi West 5.8 mph - N/A   Clear
7:42 PM 32.0 °F 27.5 °F 6.8 °F 35% 30.18 in 10.0 mi SW 4.6 mph - N/A   Clear
8:02 PM 32.0 °F 24.2 °F 5.0 °F 32% 30.18 in 10.0 mi WSW 9.2 mph - N/A   Clear
8:21 PM 32.0 °F 24.8 °F 5.0 °F 32% 30.17 in 10.0 mi WSW 8.1 mph - N/A   Clear
8:41 PM 32.0 °F 24.8 °F 5.0 °F 32% 30.17 in 10.0 mi SW 8.1 mph - N/A   Clear
9:01 PM 32.0 °F 23.6 °F 8.6 °F 38% 30.16 in 10.0 mi South 10.4 mph - N/A   Clear
9:21 PM 32.0 °F 24.2 °F 8.6 °F 38% 30.17 in 10.0 mi SSW 9.2 mph - N/A   Clear
9:41 PM 32.0 °F 25.6 °F 6.8 °F 35% 30.16 in 10.0 mi WSW 6.9 mph - N/A   Clear
10:00 PM 32.0 °F 24.8 °F 8.6 °F 38% 30.16 in 10.0 mi West 8.1 mph - N/A   Clear
10:20 PM 33.8 °F 23.9 °F 8.6 °F 35% 30.16 in 10.0 mi West 15.0 mph - N/A   Clear
10:41 PM 32.0 °F 23.0 °F 6.8 °F 35% 30.16 in 10.0 mi West 11.5 mph - N/A   Clear
11:01 PM 32.0 °F 23.0 °F 6.8 °F 35% 30.16 in 10.0 mi WNW 11.5 mph - N/A   Clear
11:21 PM 33.8 °F 24.3 °F 5.0 °F 30% 30.15 in 10.0 mi WNW 13.8 mph - N/A   Clear
11:42 PM 35.6 °F 25.2 °F 5.0 °F 28% 30.15 in 10.0 mi WNW 18.4 mph - N/A   Clear